ROMMA est une association bénévole à but non lucratif. Votre soutien est indispensable : ADHERER à ROMMA ou FAIRE un DON

Voiron - (38, Isère)

Voironnais (300 m)   Longitude: 05° 35' E   Latitude: 45° 23' N Station partenaire n°109
 

Détail journalier du     <<     >>

Température Precipitation Humidité Pression Vent Dir Rafale Dir. rafale Ensol.
Heure (°C) (mm) (%) (hPa) (km/h) (km/h) (min)
01:00 11.807010207N24N0
02:00 11.6070102011N26N0
03:00 10.507410209N19NE0
04:00 10.8069102011N26N0
05:00 10.2071101910N27NNE0
06:00 9.707310196N23NNO0
07:00 9.807110194NNE19N0
08:00 9.507110196N21NE0
09:00 9.207510202SE8N0
10:00 11.306810202SSO8N60
11:00 12.706410205N13N60
12:00 12.8062102011N26NNO60
13:00 13.9061102012N27NNO60
14:00 14.8060101911NNO26N60
15:00 15.4057101913N26N60
16:00 16.2054101812N26NO60
17:00 16.6053101810N24NNO60
18:00 15.5056101810N23NNO60
19:00 14.906110197N18N30
20:00 14.106410198N19NNE0
21:00 13.306810193N13N0
22:00 12.107210193NE8NNO0
23:00 10.707910192E10NNO0
minuit 9.708310191N5N0

Graphique du 03-10-2019

 

Serveur OMMA